EXS61M EGKK-LEIB

Flight info

Callsign EXS61M
Flight time N/A
Altitude 36000
Route IMVUR N63 SAM M195 MARUK N621 LELNA DCT NOVAN DCT NENEM DCT BADRU P152 PPN DCT EXEMU DCT CMA M176 RETBA T257 LASPO Z224 VARUT
Aircraft A21N/M-SDE3FGHIRWY/LB1

Departure

Time N/A
Airport London Gatwick Airport (EGKK)

Arrival

Time 2026-05-04 01:01
Airport Ibiza Airport (LEIB)
Time Latitude Longitude Altitude Speed Heading
2026-05-03 22:58 50.01429 -2.04303 32916 ft 418 kts 218°
2026-05-03 22:58 49.99131 -2.07101 33074 ft 417 kts 214°
2026-05-03 22:58 49.96714 -2.09570 33225 ft 417 kts 210°
2026-05-03 22:58 49.94188 -2.11711 33370 ft 416 kts 205°
2026-05-03 22:59 49.91553 -2.13526 33532 ft 415 kts 201°
2026-05-03 22:59 49.88801 -2.15013 33681 ft 415 kts 197°
2026-05-03 22:59 49.86044 -2.16314 33826 ft 415 kts 197°
2026-05-03 22:59 49.83241 -2.17627 33955 ft 415 kts 197°
2026-05-03 23:00 49.80505 -2.18904 34074 ft 415 kts 197°
2026-05-03 23:00 49.77749 -2.20188 34204 ft 415 kts 197°
2026-05-03 23:00 49.74984 -2.21474 34349 ft 415 kts 197°
2026-05-03 23:00 49.72215 -2.22760 34497 ft 415 kts 197°
2026-05-03 23:01 49.69449 -2.24043 34631 ft 416 kts 197°
2026-05-03 23:01 49.66656 -2.25338 34766 ft 416 kts 197°
2026-05-03 23:01 49.63919 -2.26603 34902 ft 416 kts 197°
2026-05-03 23:01 49.61143 -2.27883 35041 ft 416 kts 197°
2026-05-03 23:02 49.58369 -2.29164 35183 ft 416 kts 197°
2026-05-03 23:02 49.55600 -2.30440 35313 ft 416 kts 197°
2026-05-03 23:02 49.52819 -2.31721 35438 ft 416 kts 197°
2026-05-03 23:02 49.50067 -2.32988 35564 ft 416 kts 197°
2026-05-03 23:03 49.47306 -2.34257 35688 ft 416 kts 197°
2026-05-03 23:03 49.44536 -2.35528 35810 ft 415 kts 198°
2026-05-03 23:03 49.41764 -2.36798 35921 ft 415 kts 198°
2026-05-03 23:04 49.36233 -2.39331 36096 ft 416 kts 198°
2026-05-03 23:04 49.30678 -2.41868 36274 ft 417 kts 198°
2026-05-03 23:05 49.25145 -2.44387 36431 ft 417 kts 198°
2026-05-03 23:05 49.19552 -2.46927 36585 ft 418 kts 198°
2026-05-03 23:06 49.13993 -2.49446 36709 ft 420 kts 198°
2026-05-03 23:06 49.08387 -2.51982 36830 ft 421 kts 198°
2026-05-03 23:07 49.02778 -2.54512 36898 ft 422 kts 198°
2026-05-03 23:07 48.97113 -2.57061 36906 ft 422 kts 198°
2026-05-03 23:08 48.91494 -2.59580 36899 ft 421 kts 198°
2026-05-03 23:08 48.85865 -2.62101 36904 ft 422 kts 198°
2026-05-03 23:09 48.80259 -2.64599 36899 ft 421 kts 198°
2026-05-03 23:09 48.74598 -2.67129 36906 ft 422 kts 197°
2026-05-03 23:10 48.68976 -2.69626 36900 ft 422 kts 197°
2026-05-03 23:10 48.63371 -2.72115 36898 ft 421 kts 197°
2026-05-03 23:11 48.57747 -2.74604 36894 ft 422 kts 197°
2026-05-03 23:11 48.52114 -2.77084 36904 ft 422 kts 197°
2026-05-03 23:12 48.46492 -2.79557 36901 ft 421 kts 197°
2026-05-03 23:12 48.40842 -2.82052 36898 ft 420 kts 197°
2026-05-03 23:13 48.35212 -2.84518 36893 ft 420 kts 197°
2026-05-03 23:13 48.29604 -2.86974 36898 ft 421 kts 197°
2026-05-03 23:14 48.23963 -2.89437 36897 ft 421 kts 197°
2026-05-03 23:14 48.18363 -2.91870 36897 ft 420 kts 197°
2026-05-03 23:15 48.12729 -2.94322 36894 ft 421 kts 197°
2026-05-03 23:15 48.07120 -2.96753 36897 ft 421 kts 197°
2026-05-03 23:16 48.01476 -2.99197 36897 ft 421 kts 197°
2026-05-03 23:16 47.95845 -3.01627 36897 ft 421 kts 197°
2026-05-03 23:17 47.90234 -3.04037 36894 ft 420 kts 197°
2026-05-03 23:17 47.87402 -3.05257 36710 ft 420 kts 197°
2026-05-03 23:17 47.84603 -3.06461 36819 ft 420 kts 197°
2026-05-03 23:18 47.78953 -3.08877 36882 ft 421 kts 198°
2026-05-03 23:18 47.73348 -3.11276 36870 ft 421 kts 198°
2026-05-03 23:19 47.67697 -3.13694 36892 ft 421 kts 198°
2026-05-03 23:19 47.62069 -3.16092 36899 ft 421 kts 198°
2026-05-03 23:20 47.56427 -3.18491 36910 ft 420 kts 198°
2026-05-03 23:20 47.50799 -3.20883 36916 ft 419 kts 197°
2026-05-03 23:21 47.45207 -3.23230 36915 ft 418 kts 198°
2026-05-03 23:21 47.39632 -3.25585 36921 ft 418 kts 198°
2026-05-03 23:22 47.31234 -3.29118 36911 ft 418 kts 198°
2026-05-03 23:22 47.25647 -3.31476 36921 ft 418 kts 198°
2026-05-03 23:23 47.20091 -3.33792 36913 ft 418 kts 198°
2026-05-03 23:23 47.14480 -3.36142 36916 ft 418 kts 197°
2026-05-03 23:24 47.08921 -3.38455 36905 ft 418 kts 197°
2026-05-03 23:24 47.03303 -3.40780 36912 ft 418 kts 198°
2026-05-03 23:25 46.97709 -3.43107 36912 ft 418 kts 198°
2026-05-03 23:25 46.92125 -3.45427 36887 ft 418 kts 198°
2026-05-03 23:26 46.86543 -3.47745 36901 ft 418 kts 197°
2026-05-03 23:26 46.80923 -3.50054 36912 ft 419 kts 197°
2026-05-03 23:27 46.75326 -3.52349 36905 ft 418 kts 198°
2026-05-03 23:27 46.69727 -3.54654 36901 ft 419 kts 198°
2026-05-03 23:28 46.64152 -3.56940 36896 ft 418 kts 198°
2026-05-03 23:28 46.58560 -3.59235 36913 ft 418 kts 198°
2026-05-03 23:29 46.52989 -3.61508 36914 ft 417 kts 198°
2026-05-03 23:29 46.47392 -3.63786 36914 ft 417 kts 198°
2026-05-03 23:30 46.41813 -3.66052 36916 ft 418 kts 197°
2026-05-03 23:30 46.36140 -3.67786 36923 ft 420 kts 190°
2026-05-03 23:31 46.30265 -3.68418 36928 ft 423 kts 183°
2026-05-03 23:31 46.24432 -3.67910 36933 ft 425 kts 176°
2026-05-03 23:32 46.18579 -3.66514 36936 ft 426 kts 173°
2026-05-03 23:32 46.12734 -3.65056 36932 ft 426 kts 173°
2026-05-03 23:33 46.06906 -3.63603 36938 ft 426 kts 173°
2026-05-03 23:33 46.01076 -3.62152 36941 ft 426 kts 173°
2026-05-03 23:34 45.95245 -3.60702 36937 ft 425 kts 173°
2026-05-03 23:34 45.89397 -3.59252 36941 ft 425 kts 173°
2026-05-03 23:35 45.83603 -3.57818 36940 ft 425 kts 174°
2026-05-03 23:35 45.77740 -3.56371 36942 ft 425 kts 174°
2026-05-03 23:36 45.71918 -3.54935 36934 ft 425 kts 174°
2026-05-03 23:36 45.66120 -3.53511 36940 ft 425 kts 174°
2026-05-03 23:37 45.60280 -3.52077 36938 ft 425 kts 174°
2026-05-03 23:37 45.54477 -3.50656 36946 ft 425 kts 174°
2026-05-03 23:38 45.48662 -3.49234 36943 ft 425 kts 174°
2026-05-03 23:38 45.42849 -3.47817 36941 ft 424 kts 174°
2026-05-03 23:39 45.37023 -3.46398 36944 ft 424 kts 174°
2026-05-03 23:39 45.31215 -3.44988 36948 ft 424 kts 174°
2026-05-03 23:40 45.25423 -3.43584 36955 ft 424 kts 174°
2026-05-03 23:40 45.19622 -3.42182 36956 ft 424 kts 174°
2026-05-03 23:41 45.13797 -3.40775 36963 ft 424 kts 174°
2026-05-03 23:41 45.08011 -3.39381 36956 ft 424 kts 174°
2026-05-03 23:42 45.02182 -3.37980 36966 ft 423 kts 174°
2026-05-03 23:42 44.96389 -3.36591 36956 ft 423 kts 174°
2026-05-03 23:43 44.90579 -3.35200 36960 ft 423 kts 174°
2026-05-03 23:43 44.84769 -3.33812 36961 ft 423 kts 175°
2026-05-03 23:44 44.78944 -3.32423 36964 ft 423 kts 175°
2026-05-03 23:44 44.73187 -3.31054 36960 ft 422 kts 175°
2026-05-03 23:45 44.67383 -3.29676 36959 ft 422 kts 175°
2026-05-03 23:45 44.61615 -3.28309 36952 ft 422 kts 175°
2026-05-03 23:46 44.55820 -3.26938 36956 ft 422 kts 175°
2026-05-03 23:46 44.50040 -3.25574 36962 ft 422 kts 175°
2026-05-03 23:47 44.44264 -3.24211 36957 ft 422 kts 175°
2026-05-03 23:47 44.38482 -3.22853 36960 ft 421 kts 175°
2026-05-03 23:48 44.32728 -3.21502 36969 ft 421 kts 175°
2026-05-03 23:48 44.26945 -3.20146 36960 ft 420 kts 175°
2026-05-03 23:49 44.21198 -3.18800 36955 ft 421 kts 175°
2026-05-03 23:49 44.15414 -3.17449 36960 ft 421 kts 175°
2026-05-03 23:50 44.10634 -3.15983 36960 ft 425 kts 169°
2026-05-03 23:50 44.04172 -3.12465 36953 ft 433 kts 159°
2026-05-03 23:51 43.99010 -3.08103 36944 ft 439 kts 150°
2026-05-03 23:51 43.94211 -3.02806 36954 ft 441 kts 147°
2026-05-03 23:52 43.89455 -2.97432 36951 ft 441 kts 147°
2026-05-03 23:52 43.84677 -2.92055 36946 ft 440 kts 147°
2026-05-03 23:53 43.79930 -2.86735 36942 ft 441 kts 147°
2026-05-03 23:53 43.75160 -2.81404 36943 ft 441 kts 147°
2026-05-03 23:54 43.70410 -2.76100 36948 ft 441 kts 147°
2026-05-03 23:54 43.65631 -2.70774 36952 ft 440 kts 147°
2026-05-03 23:55 43.60889 -2.65518 36961 ft 440 kts 147°
2026-05-03 23:55 43.56133 -2.60250 36950 ft 439 kts 147°
2026-05-03 23:56 43.51366 -2.54982 36964 ft 439 kts 147°
2026-05-03 23:56 43.46601 -2.49723 36956 ft 439 kts 147°
2026-05-03 23:57 43.41856 -2.44495 36957 ft 439 kts 148°
2026-05-03 23:57 43.37098 -2.39269 36965 ft 439 kts 148°
2026-05-03 23:58 43.32320 -2.34023 36973 ft 439 kts 148°
2026-05-03 23:58 43.27536 -2.28785 36981 ft 438 kts 149°
2026-05-03 23:59 43.22770 -2.23577 36979 ft 438 kts 149°
2026-05-03 23:59 43.18034 -2.18410 36969 ft 437 kts 149°
2026-05-04 00:00 43.13256 -2.13211 36980 ft 437 kts 149°
2026-05-04 00:00 43.08502 -2.08053 36989 ft 437 kts 149°
2026-05-04 00:01 43.03737 -2.02897 36980 ft 436 kts 149°
2026-05-04 00:01 42.98984 -1.97760 36978 ft 434 kts 149°
2026-05-04 00:02 42.94234 -1.92636 36979 ft 434 kts 149°
2026-05-04 00:02 42.89485 -1.87525 36984 ft 435 kts 149°
2026-05-04 00:03 42.84738 -1.82418 36996 ft 436 kts 149°
2026-05-04 00:03 42.79957 -1.77338 36995 ft 434 kts 151°
2026-05-04 00:04 42.74880 -1.73095 36995 ft 427 kts 160°
2026-05-04 00:04 42.69462 -1.70031 36991 ft 418 kts 168°
2026-05-04 00:05 42.63880 -1.68155 36992 ft 412 kts 176°
2026-05-04 00:05 42.58207 -1.66888 37000 ft 411 kts 176°
2026-05-04 00:06 42.52559 -1.65634 37000 ft 412 kts 176°
2026-05-04 00:06 42.46912 -1.64385 36998 ft 413 kts 176°
2026-05-04 00:07 42.41259 -1.63136 36991 ft 413 kts 176°
2026-05-04 00:07 42.35569 -1.61880 36982 ft 413 kts 176°
2026-05-04 00:08 42.29921 -1.60634 36987 ft 413 kts 176°
2026-05-04 00:08 42.24276 -1.59394 36989 ft 413 kts 176°
2026-05-04 00:09 42.18577 -1.58144 36993 ft 414 kts 176°
2026-05-04 00:09 42.12902 -1.56900 36988 ft 415 kts 176°
2026-05-04 00:10 42.07225 -1.55659 37000 ft 415 kts 176°
2026-05-04 00:10 42.01494 -1.54408 36997 ft 415 kts 176°
2026-05-04 00:11 41.95804 -1.53166 37001 ft 416 kts 176°
2026-05-04 00:11 41.90105 -1.51928 36998 ft 416 kts 176°
2026-05-04 00:12 41.84358 -1.50682 36995 ft 416 kts 176°
2026-05-04 00:12 41.78622 -1.49437 36990 ft 416 kts 176°
2026-05-04 00:13 41.72922 -1.48203 36989 ft 416 kts 176°
2026-05-04 00:13 41.67198 -1.46968 36991 ft 417 kts 176°
2026-05-04 00:14 41.61478 -1.45734 36991 ft 417 kts 176°
2026-05-04 00:14 41.55738 -1.44498 36989 ft 417 kts 176°
2026-05-04 00:15 41.49997 -1.43265 36989 ft 417 kts 176°
2026-05-04 00:15 41.44268 -1.42034 36993 ft 418 kts 176°
2026-05-04 00:16 41.38547 -1.40809 36994 ft 417 kts 176°
2026-05-04 00:16 41.32850 -1.39590 36998 ft 418 kts 176°
2026-05-04 00:17 41.27104 -1.38364 37001 ft 418 kts 176°
2026-05-04 00:17 41.21356 -1.37145 37004 ft 418 kts 176°
2026-05-04 00:18 41.15608 -1.35931 37005 ft 418 kts 176°
2026-05-04 00:18 41.09868 -1.34714 37004 ft 418 kts 177°
2026-05-04 00:19 41.04115 -1.33499 37006 ft 419 kts 176°
2026-05-04 00:19 40.98369 -1.32283 37016 ft 419 kts 176°
2026-05-04 00:20 40.92639 -1.31073 37021 ft 418 kts 176°
2026-05-04 00:20 40.86853 -1.29839 37017 ft 419 kts 175°
2026-05-04 00:21 40.81126 -1.28296 37020 ft 420 kts 174°
2026-05-04 00:21 40.75427 -1.26743 37020 ft 420 kts 174°
2026-05-04 00:22 40.69658 -1.25177 37029 ft 421 kts 174°
2026-05-04 00:22 40.63946 -1.23632 37030 ft 421 kts 174°
2026-05-04 00:23 40.58205 -1.22079 37034 ft 421 kts 174°
2026-05-04 00:23 40.52447 -1.20521 37034 ft 421 kts 174°
2026-05-04 00:24 40.46748 -1.18980 37033 ft 421 kts 174°
2026-05-04 00:24 40.41011 -1.17433 37038 ft 422 kts 174°
2026-05-04 00:25 40.35241 -1.15877 37043 ft 422 kts 174°
2026-05-04 00:25 40.29496 -1.14332 37048 ft 421 kts 174°
2026-05-04 00:26 40.23763 -1.12788 37054 ft 420 kts 174°
2026-05-04 00:26 40.18048 -1.11254 37057 ft 420 kts 174°
2026-05-04 00:27 40.12357 -1.09729 37057 ft 421 kts 174°
2026-05-04 00:27 40.06603 -1.08191 37062 ft 421 kts 174°
2026-05-04 00:28 40.00861 -1.06656 37062 ft 422 kts 174°
2026-05-04 00:28 39.95113 -1.05125 37054 ft 422 kts 174°
2026-05-04 00:29 39.89365 -1.03598 37052 ft 422 kts 174°
2026-05-04 00:29 39.83608 -1.02073 37053 ft 422 kts 174°
2026-05-04 00:30 39.77880 -1.00555 37049 ft 421 kts 173°
2026-05-04 00:30 39.72120 -0.99032 37041 ft 422 kts 174°
2026-05-04 00:31 39.66405 -0.97425 37040 ft 421 kts 172°
2026-05-04 00:31 39.60701 -0.95720 37042 ft 422 kts 172°
2026-05-04 00:32 39.54980 -0.94032 37044 ft 421 kts 172°
2026-05-04 00:32 39.49375 -0.91638 37048 ft 431 kts 160°
2026-05-04 00:33 39.42124 -0.84604 37040 ft 449 kts 137°
2026-05-04 00:34 39.38546 -0.77928 37041 ft 458 kts 125°
2026-05-04 00:34 39.35428 -0.70732 37034 ft 458 kts 124°
2026-05-04 00:35 39.32287 -0.63565 36824 ft 459 kts 125°
2026-05-04 00:35 39.30756 -0.60027 36532 ft 457 kts 123°
2026-05-04 00:35 39.29347 -0.56341 36280 ft 456 kts 120°
2026-05-04 00:35 39.28128 -0.52618 36045 ft 454 kts 116°
2026-05-04 00:36 39.27075 -0.48786 35729 ft 456 kts 113°
2026-05-04 00:36 39.26185 -0.44829 35302 ft 457 kts 110°
2026-05-04 00:36 39.25377 -0.40933 34801 ft 457 kts 110°
2026-05-04 00:36 39.24565 -0.36990 34197 ft 457 kts 110°
2026-05-04 00:37 39.23743 -0.33014 33532 ft 456 kts 111°
2026-05-04 00:37 39.22927 -0.29081 32885 ft 455 kts 111°
2026-05-04 00:37 39.22111 -0.25169 32213 ft 455 kts 111°
2026-05-04 00:37 39.21300 -0.21290 31563 ft 454 kts 111°
2026-05-04 00:38 39.20476 -0.17371 30884 ft 453 kts 111°
2026-05-04 00:38 39.19652 -0.13468 30207 ft 453 kts 111°
2026-05-04 00:38 39.18819 -0.09533 29542 ft 453 kts 111°
2026-05-04 00:38 39.18000 -0.05667 29100 ft 447 kts 111°
2026-05-04 00:39 39.17196 -0.01861 28661 ft 442 kts 111°
2026-05-04 00:39 39.16389 0.01943 28208 ft 438 kts 112°
2026-05-04 00:39 39.15587 0.05702 27750 ft 434 kts 111°
2026-05-04 00:39 39.14800 0.09396 27299 ft 430 kts 111°
2026-05-04 00:40 39.14008 0.13100 26842 ft 427 kts 111°
2026-05-04 00:40 39.13222 0.16761 26400 ft 423 kts 111°
2026-05-04 00:40 39.12447 0.20381 25960 ft 421 kts 111°
2026-05-04 00:40 39.11672 0.23991 25519 ft 418 kts 111°
2026-05-04 00:41 39.10910 0.27533 25081 ft 416 kts 111°
2026-05-04 00:41 39.10142 0.31098 24645 ft 413 kts 110°
2026-05-04 00:41 39.09372 0.34665 24209 ft 412 kts 111°
2026-05-04 00:41 39.08616 0.38165 23779 ft 410 kts 110°
2026-05-04 00:42 39.07850 0.41698 23348 ft 408 kts 110°
2026-05-04 00:42 39.07087 0.45212 22927 ft 406 kts 110°
2026-05-04 00:42 39.06333 0.48688 22504 ft 405 kts 110°
2026-05-04 00:42 39.05584 0.52128 22064 ft 404 kts 110°
2026-05-04 00:43 39.04828 0.55596 21631 ft 403 kts 110°
2026-05-04 00:43 39.04073 0.59046 21197 ft 402 kts 109°
2026-05-04 00:43 39.03319 0.62502 20763 ft 400 kts 109°
2026-05-04 00:43 39.02640 0.65965 20328 ft 400 kts 105°
2026-05-04 00:44 39.02181 0.69476 19892 ft 400 kts 100°
2026-05-04 00:44 39.01944 0.73006 19415 ft 401 kts 96°
2026-05-04 00:44 39.01788 0.76603 18965 ft 400 kts 95°
2026-05-04 00:44 39.01647 0.80133 18521 ft 398 kts 95°
2026-05-04 00:45 39.01501 0.83700 18076 ft 397 kts 95°
2026-05-04 00:45 39.01350 0.87242 17639 ft 395 kts 95°
2026-05-04 00:45 39.01194 0.90748 17203 ft 394 kts 95°
2026-05-04 00:45 39.01036 0.94203 16770 ft 392 kts 95°
2026-05-04 00:46 39.00876 0.97671 16334 ft 389 kts 95°
2026-05-04 00:46 39.00718 1.01133 15897 ft 387 kts 95°
2026-05-04 00:46 39.00559 1.04603 15457 ft 386 kts 94°
2026-05-04 00:46 39.00402 1.08018 15023 ft 383 kts 94°
2026-05-04 00:47 39.00242 1.11399 14608 ft 381 kts 95°
2026-05-04 00:47 39.00084 1.14772 14180 ft 378 kts 93°
2026-05-04 00:47 39.00124 1.18139 13759 ft 375 kts 86°
2026-05-04 00:47 39.00474 1.21391 13323 ft 372 kts 79°
2026-05-04 00:48 39.01006 1.24620 12920 ft 369 kts 77°
2026-05-04 00:48 39.01572 1.27801 12515 ft 365 kts 76°
2026-05-04 00:48 39.02124 1.30927 12424 ft 351 kts 77°
2026-05-04 00:48 39.02643 1.33912 12375 ft 334 kts 77°
2026-05-04 00:49 39.03131 1.36770 12330 ft 319 kts 77°
2026-05-04 00:49 39.03589 1.39483 12270 ft 305 kts 78°
2026-05-04 00:49 39.04028 1.42107 12214 ft 293 kts 78°
2026-05-04 00:49 39.04458 1.44662 12169 ft 293 kts 78°
2026-05-04 00:50 39.04863 1.47207 11930 ft 294 kts 79°
2026-05-04 00:50 39.05229 1.49792 11581 ft 292 kts 80°
2026-05-04 00:50 39.05578 1.52323 11250 ft 290 kts 80°
2026-05-04 00:50 39.05933 1.54870 10918 ft 288 kts 80°
2026-05-04 00:51 39.06289 1.57401 10602 ft 286 kts 80°
2026-05-04 00:51 39.06642 1.59877 10296 ft 282 kts 80°
2026-05-04 00:51 39.07117 1.62318 9971 ft 278 kts 69°
2026-05-04 00:51 39.07908 1.64568 9663 ft 278 kts 62°
2026-05-04 00:52 39.08818 1.66764 9349 ft 277 kts 62°
2026-05-04 00:52 39.09724 1.68910 9040 ft 275 kts 62°
2026-05-04 00:52 39.10633 1.71086 8724 ft 273 kts 62°
2026-05-04 00:52 39.11515 1.73222 8415 ft 272 kts 63°
2026-05-04 00:53 39.12234 1.75430 8051 ft 270 kts 83°
2026-05-04 00:53 39.12023 1.77753 7715 ft 261 kts 119°
2026-05-04 00:53 39.10833 1.79421 7405 ft 253 kts 154°
2026-05-04 00:53 39.09232 1.80335 7132 ft 251 kts 161°
2026-05-04 00:54 39.07617 1.81110 6805 ft 248 kts 171°
2026-05-04 00:54 39.05953 1.80919 6463 ft 238 kts 206°
2026-05-04 00:54 39.04676 1.79616 6148 ft 237 kts 235°
2026-05-04 00:54 39.03918 1.77758 5858 ft 237 kts 244°
2026-05-04 00:55 39.03200 1.75847 5553 ft 236 kts 243°
2026-05-04 00:55 39.02465 1.73959 5247 ft 235 kts 241°
2026-05-04 00:55 39.01706 1.72105 4945 ft 234 kts 240°
2026-05-04 00:55 39.00941 1.70275 4640 ft 233 kts 240°
2026-05-04 00:56 39.00191 1.68450 4354 ft 232 kts 241°
2026-05-04 00:56 38.99438 1.66593 4081 ft 232 kts 240°
2026-05-04 00:56 38.98690 1.64767 3812 ft 230 kts 240°
2026-05-04 00:56 38.97945 1.62968 3548 ft 228 kts 240°
2026-05-04 00:57 38.97214 1.61210 3286 ft 223 kts 240°
2026-05-04 00:57 38.96493 1.59481 3137 ft 214 kts 240°
2026-05-04 00:57 38.95798 1.57815 3186 ft 207 kts 240°
2026-05-04 00:57 38.95159 1.56277 3259 ft 186 kts 240°
2026-05-04 00:58 38.94569 1.54853 3123 ft 175 kts 239°
2026-05-04 00:58 38.94017 1.53529 3023 ft 158 kts 239°
2026-05-04 00:58 38.93505 1.52301 3016 ft 154 kts 238°
2026-05-04 00:58 38.93006 1.51025 2521 ft 174 kts 243°
2026-05-04 00:59 38.92485 1.49545 1763 ft 190 kts 239°
2026-05-04 00:59 38.91814 1.48121 1533 ft 176 kts 237°
2026-05-04 00:59 38.91239 1.46850 1423 ft 161 kts 239°
2026-05-04 00:59 38.90729 1.45635 1192 ft 149 kts 241°
2026-05-04 01:00 38.90254 1.44480 992 ft 145 kts 241°
2026-05-04 01:00 38.89782 1.43338 814 ft 145 kts 242°
2026-05-04 01:00 38.89306 1.42193 629 ft 145 kts 242°
2026-05-04 01:00 38.88827 1.41070 442 ft 144 kts 241°
2026-05-04 01:01 38.88347 1.39931 206 ft 143 kts 243°
2026-05-04 01:01 38.87894 1.38799 44 ft 143 kts 244°
2026-05-04 01:01 38.87462 1.37736 28 ft 116 kts 243°
2026-05-04 01:01 38.87173 1.37032 21 ft 47 kts 242°
2026-05-04 01:02 38.87103 1.36769 19 ft 22 kts 264°
2026-05-04 01:02 38.87101 1.36618 19 ft 12 kts 276°
2026-05-04 01:02 38.87151 1.36581 18 ft 9 kts 26°
2026-05-04 01:02 38.87192 1.36635 19 ft 8 kts 64°
2026-05-04 01:03 38.87218 1.36702 19 ft 8 kts 63°
2026-05-04 01:03 38.87246 1.36770 20 ft 8 kts 62°
2026-05-04 01:03 38.87280 1.36835 20 ft 8 kts 33°
2026-05-04 01:03 38.87342 1.36827 21 ft 9 kts 337°
2026-05-04 01:04 38.87392 1.36796 24 ft 6 kts 334°
2026-05-04 01:04 38.87431 1.36783 26 ft 6 kts 358°
2026-05-04 01:04 38.87472 1.36791 29 ft 4 kts 14°
2026-05-04 01:04 38.87487 1.36796 31 ft 1 kts 15°
2026-05-04 01:05 38.87501 1.36801 32 ft 2 kts 16°
2026-05-04 01:05 38.87502 1.36801 32 ft 0 kts 16°
2026-05-04 01:05 38.87503 1.36802 33 ft 0 kts 17°